Date String (YYYY-MM-DD hh:mm:ss) UTC,Instrument flags,Ambient pressure (hPa),Sample flow (lpm),Bypass flow (lpm),Sample temperature (°C),Ambient temperature (°C),ASC tube jacket temperature (°C),LED temperature (°C),Box temperature (°C),Sample RH (%),Span deviation,Mass concentration (μg/m³),Mass concentration (μg/m³),Mass concentration (μg/m³)
DateTimeUTC,F1_M11,P_M11,Q1_M11,Q2_M11,T1_M11,T2_M11,T3_M11,T4_M11,T5_M11,U1_M11,ZSPAN_M11,X0_M11,X2_M11,X1_M11
2022-03-21 02:00:00,,0816.1,4.99,0.00,29.1,28.1,00.0,38.1,30.7,07.8,0000.0,0010.30,0004.12,0002.47
2022-03-21 02:01:00,,0816.3,5.02,0.00,29.1,28.1,00.0,38.1,30.7,07.7,0000.0,0010.60,0004.14,0002.49
2022-03-21 02:02:00,,0816.1,4.98,0.00,29.1,28.1,00.0,38.1,30.7,07.9,0000.0,0011.01,0004.18,0002.50
2022-03-21 02:03:00,,0816.3,5.01,0.00,29.1,28.1,00.0,38.1,30.7,07.9,0000.0,0011.07,0004.16,0002.51
2022-03-21 02:04:00,,0816.5,4.99,0.00,29.1,28.1,00.0,38.1,30.7,08.0,0000.0,0011.20,0004.18,0002.51
2022-03-21 02:05:00,,0816.5,5.01,0.00,29.1,28.1,00.0,38.1,30.8,07.9,0000.0,0011.72,0004.18,0002.53
2022-03-21 02:06:00,,0816.4,4.99,0.00,29.1,28.1,00.0,38.1,30.8,07.9,0000.0,0011.96,0004.20,0002.54
2022-03-21 02:07:00,,0816.1,5.01,0.00,29.1,28.1,00.0,38.1,30.8,07.6,0000.0,0011.74,0004.21,0002.55
2022-03-21 02:08:00,,0816.0,5.00,0.00,29.1,28.2,00.0,38.1,30.8,07.6,0000.0,0012.02,0004.20,0002.57
2022-03-21 02:09:00,,0816.0,5.01,0.00,29.1,28.2,00.0,38.1,30.8,08.1,0000.0,0011.98,0004.16,0002.58
2022-03-21 02:10:00,,0816.0,4.98,0.00,29.1,28.2,00.0,38.1,30.8,08.0,0000.0,0011.61,0004.14,0002.57
2022-03-21 02:11:00,,0816.0,5.01,0.00,29.1,28.2,00.0,38.1,30.8,07.9,0000.0,0011.07,0004.10,0002.57
2022-03-21 02:12:00,,0816.0,5.00,0.00,29.1,28.2,00.0,38.1,30.7,07.7,0000.0,0010.96,0004.08,0002.57
2022-03-21 02:13:00,,0815.9,4.98,0.00,29.0,28.1,00.0,38.1,30.7,07.7,0000.0,0010.45,0004.03,0002.55
2022-03-21 02:14:00,,0816.0,5.01,0.00,29.0,28.1,00.0,38.1,30.7,07.8,0000.0,0010.44,0004.02,0002.53
2022-03-21 02:15:00,,0815.9,4.98,0.00,29.0,28.1,00.0,38.1,30.7,07.7,0000.0,0010.38,0004.03,0002.52
2022-03-21 02:16:00,,0815.9,5.02,0.00,29.0,28.1,00.0,38.1,30.7,07.6,0000.0,0009.95,0004.00,0002.52
2022-03-21 02:17:00,,0815.9,5.00,0.00,29.0,28.1,00.0,38.1,30.7,07.4,0000.0,0009.72,0003.94,0002.54
2022-03-21 02:18:00,,0816.0,5.00,0.00,29.0,28.1,00.0,38.1,30.7,07.3,0000.0,0009.70,0003.97,0002.55
2022-03-21 02:19:00,,0816.0,5.00,0.00,29.0,28.1,00.0,38.1,30.7,07.4,0000.0,0009.39,0004.03,0002.57
2022-03-21 02:20:00,,0816.0,5.00,0.00,29.0,28.1,00.0,38.1,30.7,07.6,0000.0,0009.33,0004.08,0002.61
2022-03-21 02:21:00,,0816.0,5.00,0.00,29.0,28.1,00.0,38.1,30.7,07.6,0000.0,0009.48,0004.14,0002.63
2022-03-21 02:22:00,,0816.0,5.01,0.00,29.0,28.1,00.0,38.0,30.7,07.4,0000.0,0009.97,0004.20,0002.66
2022-03-21 02:23:00,,0816.4,4.98,0.00,29.0,28.1,00.0,38.0,30.7,07.5,0000.0,0010.58,0004.25,0002.69
2022-03-21 02:24:00,,0816.4,5.01,0.00,29.0,28.1,00.0,38.0,30.7,07.4,0000.0,0010.87,0004.31,0002.73
2022-03-21 02:25:00,,0816.3,4.99,0.00,29.0,28.1,00.0,38.0,30.7,07.3,0000.0,0011.04,0004.35,0002.76
2022-03-21 02:26:00,,0816.6,5.01,0.00,29.0,28.1,00.0,38.0,30.6,07.3,0000.0,0010.99,0004.33,0002.77
2022-03-21 02:27:00,,0816.1,4.99,0.00,29.0,28.1,00.0,38.0,30.7,07.4,0000.0,0011.05,0004.35,0002.79
2022-03-21 02:28:00,,0816.1,5.00,0.00,29.0,28.1,00.0,38.0,30.7,07.5,0000.0,0010.73,0004.39,0002.78
2022-03-21 02:29:00,,0816.1,5.01,0.00,29.0,28.1,00.0,38.0,30.7,07.4,0000.0,0010.95,0004.39,0002.79
2022-03-21 02:30:00,,0816.1,4.99,0.00,29.0,28.1,00.0,38.0,30.7,07.5,0000.0,0011.14,0004.36,0002.78
2022-03-21 02:31:00,,0816.1,5.01,0.00,29.0,28.1,00.0,38.0,30.7,07.5,0000.0,0011.30,0004.37,0002.77
2022-03-21 02:32:00,,0816.1,4.99,0.00,29.0,28.1,00.0,38.0,30.7,07.3,0000.0,0011.28,0004.35,0002.75
2022-03-21 02:33:00,,0816.1,4.99,0.00,29.0,28.1,00.0,38.0,30.7,07.4,0000.0,0010.98,0004.32,0002.77
2022-03-21 02:34:00,,0816.1,5.01,0.00,29.0,28.1,00.0,38.0,30.6,07.1,0000.0,0010.29,0004.26,0002.76
2022-03-21 02:35:00,,0816.1,5.00,0.00,29.0,28.1,00.0,38.0,30.6,06.9,0000.0,0010.04,0004.23,0002.77
2022-03-21 02:36:00,,0816.1,4.98,0.00,29.0,28.1,00.0,38.0,30.7,06.8,0000.0,0009.81,0004.19,0002.75
2022-03-21 02:37:00,,0816.2,5.02,0.00,29.0,28.1,00.0,38.0,30.7,06.8,0000.0,0010.00,0004.26,0002.78
2022-03-21 02:38:00,,0816.2,4.99,0.00,29.0,28.0,00.0,38.0,30.6,06.8,0000.0,0010.57,0004.36,0002.80
2022-03-21 02:39:00,,0816.2,4.99,0.00,29.0,28.0,00.0,38.0,30.6,06.8,0000.0,0010.90,0004.38,0002.83
2022-03-21 02:40:00,,0816.2,4.99,0.00,29.0,28.0,00.0,38.0,30.6,06.8,0000.0,0010.88,0004.40,0002.85
2022-03-21 02:41:00,,0816.2,5.01,0.00,29.0,28.0,00.0,38.0,30.6,06.8,0000.0,0010.68,0004.44,0002.88
2022-03-21 02:42:00,,0816.2,5.00,0.00,29.0,28.1,00.0,38.0,30.6,07.1,0000.0,0010.98,0004.43,0002.90
2022-03-21 02:43:00,,0816.3,4.99,0.00,29.0,28.1,00.0,38.0,30.6,07.3,0000.0,0011.34,0004.45,0002.92
2022-03-21 02:44:00,,0816.3,5.00,0.00,29.0,28.0,00.0,38.0,30.6,07.2,0000.0,0011.79,0004.50,0002.92
2022-03-21 02:45:00,,0816.3,5.00,0.00,29.0,28.0,00.0,38.0,30.6,07.2,0000.0,0011.94,0004.54,0002.92
2022-03-21 02:46:00,,0816.3,5.00,0.00,29.0,28.0,00.0,38.0,30.7,07.2,0000.0,0012.13,0004.58,0002.92
2022-03-21 02:47:00,,0816.3,5.01,0.00,29.0,28.1,00.0,38.0,30.7,07.3,0000.0,0012.13,0004.60,0002.94
2022-03-21 02:48:00,,0816.3,4.99,0.00,29.0,28.1,00.0,38.0,30.7,07.4,0000.0,0011.97,0004.56,0002.94
2022-03-21 02:49:00,,0816.3,5.02,0.00,29.0,28.0,00.0,38.0,30.6,07.4,0000.0,0011.47,0004.49,0002.91
2022-03-21 02:50:00,,0816.3,4.99,0.00,29.0,28.0,00.0,38.0,30.6,07.4,0000.0,0011.15,0004.47,0002.87
2022-03-21 02:51:00,,0816.3,5.01,0.00,29.0,28.0,00.0,38.0,30.7,07.5,0000.0,0011.28,0004.42,0002.85
2022-03-21 02:52:00,,0816.4,4.99,0.00,29.0,28.0,00.0,38.0,30.7,07.6,0000.0,0011.11,0004.39,0002.82
2022-03-21 02:53:00,,0816.4,5.00,0.00,28.9,28.0,00.0,38.0,30.7,07.5,0000.0,0010.38,0004.35,0002.79
2022-03-21 02:54:00,,0816.3,5.00,0.00,28.9,28.0,00.0,38.0,30.7,07.6,0000.0,0010.24,0004.37,0002.79
2022-03-21 02:55:00,,0816.4,4.99,0.00,28.9,28.0,00.0,38.0,30.7,07.6,0000.0,0009.73,0004.27,0002.77
2022-03-21 02:56:00,,0816.4,5.02,0.00,28.9,28.0,00.0,38.0,30.7,07.6,0000.0,0010.55,0004.22,0002.75
2022-03-21 02:57:00,,0816.4,4.99,0.00,28.9,28.0,00.0,38.0,30.7,07.6,0000.0,0010.73,0004.18,0002.73
2022-03-21 02:58:00,,0816.3,5.02,0.00,28.9,28.0,00.0,38.0,30.6,07.6,0000.0,0011.08,0004.17,0002.70
2022-03-21 02:59:00,,0816.3,4.99,0.00,28.9,28.0,00.0,38.0,30.6,07.7,0000.0,0011.56,0004.15,0002.67
